Weather in Vicenza

Italy     45°33′47″N   11°32′04″E
temp.,
°C
wind,
m/s
gust,
m/s
humid.,
%
clouds,
%
prec.,
mm/h
press.,
hPa
HPBL,
m
14 april, wed
wed1423:00+7ssw259197 0.3 1024414
02:00+6sw249535 0.4 1024174
05:00+6w128937 0.1 1023102
08:00+6nnw11688 0.1 1024111
11:00+10ene215510 0.1 1024885
14:00+11se325359 0.8 10231386
17:00+11sse335871 0.3 10211292
20:00+9sw117589 0.8 102213
15 april, thu
thu1523:00+8ene0076100 0.1 102313
02:00+7nne1177100 0.1 102235
05:00+5ne258099 0.0 1022196
08:00+6ne3783100 0.1 1023460
11:00+8e2371100 0.8 1023663
14:00+9n126690 1.4 1023930
17:00+11ene124937 0.1 10201547
20:00+9e11615 0.1 102013
16 april, fri
fri1623:00+7n11695 0.0 102124
02:00+6nnw22752 0.0 102146
05:00+5nne11710 0.0 102014
08:00+6n12620 0.0 1020111
11:00+11e23490 0.0 1020833
14:00+14e2342100 0.0 10181601
17:00+14e3442100 0.0 10171465
20:00+11e1160100 0.0 101711
17 april, sat
sat1723:00+9nnw2265100 0.0 101835
02:00+8nne3965100 0.0 1017259
05:00+7nne24686 0.0 101680
08:00+8nne276523 0.0 1017331
11:00+12e3452100 0.0 1016968
14:00+14se2148100 0.0 10141518
17:00+12sse2256100 0.0 10141003
20:00+11nne1359100 0.0 1015264
18 april, sun
sun1823:00+10n1261100 0.0 101673
02:00+9nw2367100 0.0 101696
05:00+9w2472100 0.1 1015241
08:00+9wsw1370100 0.1 1016264
11:00+12wnw1157100 0.0 1017472
14:00+14ese1241100 0.0 10161108
17:00+14s2243100 0.0 10161384
20:00+12ese2360100 0.0 101691